Year,Month,Day,Hour,Minute,Value (Times are PST for temperature in C)
2018,09,28,00,29,13.70
2018,09,28,00,30,13.70
2018,09,28,01,29,13.50
2018,09,28,01,30,13.50
2018,09,28,01,31,13.50
2018,09,28,01,32,13.60
2018,09,28,01,33,13.60
2018,09,28,01,34,13.60
2018,09,28,01,35,13.60
2018,09,28,01,36,13.60
2018,09,28,01,37,13.60
2018,09,28,01,38,13.60
2018,09,28,01,39,13.50
2018,09,28,01,40,13.50
2018,09,28,01,41,13.40
2018,09,28,01,42,13.40
2018,09,28,01,43,13.40
2018,09,28,01,44,13.30
2018,09,28,01,45,13.30
2018,09,28,01,46,13.30
2018,09,28,01,47,13.30
2018,09,28,01,48,13.30
2018,09,28,01,49,13.30
2018,09,28,01,50,13.30
2018,09,28,01,51,13.30
2018,09,28,01,52,13.40
2018,09,28,01,53,13.40
2018,09,28,01,54,13.40
2018,09,28,01,55,13.50
2018,09,28,01,56,13.50
2018,09,28,01,57,13.50
2018,09,28,01,58,13.50
2018,09,28,01,59,13.60
2018,09,28,02,00,13.60
2018,09,28,02,02,13.60
2018,09,28,02,29,14.20
2018,09,28,02,30,14.20
2018,09,28,02,31,14.20
2018,09,28,02,32,14.20
2018,09,28,02,33,14.20
2018,09,28,02,34,14.20
2018,09,28,02,35,14.20
2018,09,28,02,36,14.20
2018,09,28,02,37,14.20
2018,09,28,02,38,14.20
2018,09,28,02,39,14.10
2018,09,28,02,40,14.10
2018,09,28,02,41,14.10
2018,09,28,02,42,14.00
2018,09,28,02,43,14.00
2018,09,28,02,44,14.00
2018,09,28,02,45,14.10
2018,09,28,02,46,14.10
2018,09,28,02,47,14.20
2018,09,28,02,48,14.20
2018,09,28,02,49,14.20
2018,09,28,02,50,14.20
2018,09,28,02,51,14.20
2018,09,28,02,52,14.20
2018,09,28,02,53,14.20
2018,09,28,02,54,14.10
2018,09,28,02,55,14.10
2018,09,28,02,56,14.00
2018,09,28,02,57,14.00
2018,09,28,02,59,13.90
2018,09,28,03,29,13.40
2018,09,28,03,30,13.40
2018,09,28,03,31,13.30
2018,09,28,03,32,13.30
2018,09,28,03,33,13.30
2018,09,28,03,34,13.30
2018,09,28,03,35,13.30
2018,09,28,03,36,13.30
2018,09,28,03,37,13.30
2018,09,28,03,38,13.30
2018,09,28,03,39,13.30
2018,09,28,03,40,13.30
2018,09,28,03,41,13.30
2018,09,28,03,42,13.30
2018,09,28,03,43,13.30
2018,09,28,03,44,13.30
2018,09,28,03,45,13.20
2018,09,28,03,46,13.20
2018,09,28,03,47,13.20
2018,09,28,03,48,13.10
2018,09,28,03,49,13.10
2018,09,28,03,50,13.10
2018,09,28,03,51,13.00
2018,09,28,03,52,13.00
2018,09,28,03,53,13.00
2018,09,28,03,54,13.00
2018,09,28,03,55,13.00
2018,09,28,03,56,13.00
2018,09,28,03,57,13.00
2018,09,28,03,58,13.00
2018,09,28,03,59,13.10
2018,09,28,04,00,13.10
2018,09,28,04,02,13.00
2018,09,28,04,29,13.30
2018,09,28,04,30,13.30
2018,09,28,04,31,13.30
2018,09,28,04,32,13.30
2018,09,28,04,33,13.30
2018,09,28,04,34,13.30
2018,09,28,04,35,13.30
2018,09,28,04,36,13.30
2018,09,28,04,37,13.30
2018,09,28,04,38,13.30
2018,09,28,04,39,13.30
2018,09,28,04,40,13.30
2018,09,28,04,41,13.30
2018,09,28,04,42,13.30
2018,09,28,04,43,13.30
2018,09,28,04,44,13.30
2018,09,28,04,45,13.30
2018,09,28,04,46,13.30
2018,09,28,04,47,13.30
2018,09,28,04,48,13.30
2018,09,28,04,49,13.30
2018,09,28,04,50,13.30
2018,09,28,04,51,13.30
2018,09,28,04,52,13.30
2018,09,28,04,53,13.30
2018,09,28,04,54,13.30
2018,09,28,04,55,13.30
2018,09,28,04,56,13.40
2018,09,28,04,58,13.40
2018,09,28,05,29,13.30
2018,09,28,05,30,13.30
2018,09,28,05,31,13.30
2018,09,28,05,32,13.30
2018,09,28,05,33,13.30
2018,09,28,05,34,13.30
2018,09,28,05,35,13.30
2018,09,28,05,36,13.40
2018,09,28,05,37,13.40
2018,09,28,05,38,13.40
2018,09,28,05,39,13.40
2018,09,28,05,40,13.40
2018,09,28,05,41,13.40
2018,09,28,05,42,13.40
2018,09,28,05,43,13.50
2018,09,28,05,44,13.50
2018,09,28,05,45,13.50
2018,09,28,05,46,13.50
2018,09,28,05,47,13.50
2018,09,28,05,48,13.50
2018,09,28,05,49,13.50
2018,09,28,05,50,13.50
2018,09,28,05,51,13.50
2018,09,28,05,52,13.50
2018,09,28,05,53,13.50
2018,09,28,05,54,13.40
2018,09,28,05,55,13.40
2018,09,28,05,56,13.40
2018,09,28,05,57,13.40
2018,09,28,05,58,13.40
2018,09,28,05,59,13.40
2018,09,28,06,00,13.30
2018,09,28,06,01,13.30
2018,09,28,06,02,13.30
2018,09,28,06,03,13.30
2018,09,28,06,04,13.30
2018,09,28,06,05,13.40
2018,09,28,06,06,13.40
2018,09,28,06,07,13.40
2018,09,28,06,08,13.40
2018,09,28,06,09,13.40
2018,09,28,06,10,13.40
2018,09,28,06,11,13.40
2018,09,28,06,13,13.40
2018,09,28,06,14,13.40
2018,09,28,06,29,13.20
2018,09,28,06,30,13.20
2018,09,28,07,29,12.70
2018,09,28,07,30,12.70
2018,09,28,07,31,12.70
2018,09,28,07,32,12.70
2018,09,28,07,33,12.70
2018,09,28,07,34,12.70
2018,09,28,07,35,12.70
2018,09,28,07,36,12.70
2018,09,28,07,37,12.70
2018,09,28,07,38,12.80
2018,09,28,07,39,12.80
2018,09,28,07,40,12.80
2018,09,28,07,41,12.70
2018,09,28,07,42,12.70
2018,09,28,07,43,12.70
2018,09,28,07,44,12.70
2018,09,28,07,45,12.70
2018,09,28,07,46,12.70
2018,09,28,07,47,12.70
2018,09,28,07,48,12.70
2018,09,28,07,49,12.80
2018,09,28,07,50,12.70
2018,09,28,07,51,12.80
2018,09,28,07,52,12.80
2018,09,28,07,53,12.80
2018,09,28,07,54,12.80
2018,09,28,07,55,12.80
2018,09,28,07,56,12.80
2018,09,28,07,57,12.80
2018,09,28,07,58,12.80
2018,09,28,07,59,12.80
2018,09,28,08,00,12.80
2018,09,28,08,02,12.90
2018,09,28,08,03,12.90
2018,09,28,08,04,12.90
2018,09,28,08,29,12.90
2018,09,28,08,30,12.90
2018,09,28,08,31,13.00
2018,09,28,08,32,13.00
2018,09,28,08,33,13.00
2018,09,28,08,34,13.00
2018,09,28,08,35,13.00
2018,09,28,08,36,13.00
2018,09,28,08,37,13.00
2018,09,28,08,38,13.00
2018,09,28,08,39,13.10
2018,09,28,08,40,13.10
2018,09,28,08,41,13.10
2018,09,28,08,42,13.10
2018,09,28,08,43,13.10
2018,09,28,08,44,13.10
2018,09,28,08,45,13.10
2018,09,28,08,46,13.10
2018,09,28,08,47,13.10
2018,09,28,08,48,13.10
2018,09,28,08,49,13.10
2018,09,28,08,50,13.10
2018,09,28,08,51,13.10
2018,09,28,08,52,13.10
2018,09,28,08,53,13.10
2018,09,28,08,54,13.10
2018,09,28,08,55,13.10
2018,09,28,08,56,13.10
2018,09,28,08,57,13.20
2018,09,28,08,58,13.20
2018,09,28,08,59,13.20
2018,09,28,09,00,13.20
2018,09,28,09,01,13.20
2018,09,28,09,03,13.20
2018,09,28,09,04,13.20
2018,09,28,09,29,13.30
2018,09,28,09,30,13.40
2018,09,28,09,31,13.40
2018,09,28,09,32,13.50
2018,09,28,09,33,13.50
2018,09,28,09,34,13.60
2018,09,28,09,35,13.60
2018,09,28,09,36,13.70
2018,09,28,09,37,13.70
2018,09,28,09,38,13.70
2018,09,28,09,39,13.70
2018,09,28,09,40,13.80
2018,09,28,09,41,13.90
2018,09,28,09,42,13.90
2018,09,28,09,43,14.00
2018,09,28,09,44,14.00
2018,09,28,09,45,14.10
2018,09,28,09,46,14.10
2018,09,28,09,47,14.20
2018,09,28,09,48,14.20
2018,09,28,09,49,14.20
2018,09,28,09,50,14.20
2018,09,28,09,51,14.20
2018,09,28,09,52,14.30
2018,09,28,09,53,14.30
2018,09,28,09,54,14.30
2018,09,28,09,55,14.40
2018,09,28,09,56,14.50
2018,09,28,09,57,14.50
2018,09,28,09,58,14.50
2018,09,28,09,59,14.60
2018,09,28,10,00,14.60
2018,09,28,10,02,14.70
2018,09,28,10,03,14.70
2018,09,28,10,04,14.80
2018,09,28,10,29,15.50
2018,09,28,10,30,15.60
2018,09,28,10,31,15.70
2018,09,28,10,32,15.80
2018,09,28,10,33,15.80
2018,09,28,10,34,15.80
2018,09,28,10,35,15.90
2018,09,28,10,36,15.90
2018,09,28,10,37,16.10
2018,09,28,10,38,16.10
2018,09,28,10,39,16.10
2018,09,28,10,40,16.10
2018,09,28,10,41,16.10
2018,09,28,10,42,16.10
2018,09,28,10,43,16.10
2018,09,28,10,44,16.10
2018,09,28,10,45,16.10
2018,09,28,10,46,16.10
2018,09,28,10,47,16.10
2018,09,28,10,48,16.10
2018,09,28,10,49,16.10
2018,09,28,10,50,16.10
2018,09,28,10,51,16.10
2018,09,28,10,52,16.10
2018,09,28,10,53,16.10
2018,09,28,10,54,16.10
2018,09,28,10,55,16.10
2018,09,28,10,56,16.10
2018,09,28,10,57,16.10
2018,09,28,10,58,16.10
2018,09,28,10,59,16.10
2018,09,28,11,00,16.10
2018,09,28,11,02,16.10
2018,09,28,11,03,16.10
2018,09,28,11,04,16.10
2018,09,28,11,29,15.70
2018,09,28,11,30,15.80
2018,09,28,11,31,15.80
2018,09,28,11,32,15.80
2018,09,28,11,33,15.80
2018,09,28,11,34,15.80
2018,09,28,11,35,15.80
2018,09,28,11,36,15.80
2018,09,28,11,37,15.80
2018,09,28,11,38,15.80
2018,09,28,11,39,15.90
2018,09,28,11,40,15.90
2018,09,28,11,41,16.10
2018,09,28,11,43,16.10
2018,09,28,11,44,16.20
2018,09,28,12,29,17.00
2018,09,28,12,30,17.00
2018,09,28,13,29,17.90
2018,09,28,13,30,18.10
2018,09,28,13,31,18.10
2018,09,28,13,32,18.20
2018,09,28,13,33,18.20
2018,09,28,13,34,18.20
2018,09,28,13,35,18.20
2018,09,28,13,36,18.20
2018,09,28,13,37,18.30
2018,09,28,13,38,18.30
2018,09,28,13,39,18.30
2018,09,28,13,40,18.40
2018,09,28,13,41,18.40
2018,09,28,13,42,18.40
2018,09,28,13,43,18.40
2018,09,28,13,44,18.40
2018,09,28,13,45,18.40
2018,09,28,13,46,18.40
2018,09,28,13,47,18.40
2018,09,28,13,48,18.30
2018,09,28,13,49,18.30
2018,09,28,13,50,18.30
2018,09,28,13,51,18.30
2018,09,28,13,52,18.30
2018,09,28,13,53,18.30
2018,09,28,13,54,18.30
2018,09,28,13,55,18.30
2018,09,28,13,56,18.30
2018,09,28,13,57,18.30
2018,09,28,13,58,18.30
2018,09,28,13,59,18.30
2018,09,28,14,00,18.30
2018,09,28,14,01,18.30
2018,09,28,14,02,18.30
2018,09,28,14,03,18.20
2018,09,28,14,04,18.20
2018,09,28,14,06,18.20
2018,09,28,14,07,18.20
2018,09,28,14,08,18.20
2018,09,28,14,09,18.20
2018,09,28,14,29,17.90
2018,09,28,14,30,17.90
2018,09,28,14,31,17.90
2018,09,28,14,32,17.90
2018,09,28,14,33,17.90
2018,09,28,14,34,17.90
2018,09,28,14,35,17.90
2018,09,28,14,36,17.90
2018,09,28,14,37,17.90
2018,09,28,14,38,17.90
2018,09,28,14,39,17.90
2018,09,28,14,40,17.90
2018,09,28,14,41,17.90
2018,09,28,14,42,17.90
2018,09,28,14,43,17.90
2018,09,28,14,44,17.90
2018,09,28,14,45,17.90
2018,09,28,15,29,18.40
2018,09,28,15,30,18.40
2018,09,28,15,31,18.30
2018,09,28,15,32,18.30
2018,09,28,15,33,18.30
2018,09,28,15,34,18.30
2018,09,28,15,35,18.30
2018,09,28,15,36,18.30
2018,09,28,15,37,18.30
2018,09,28,15,38,18.20
2018,09,28,15,39,18.20
2018,09,28,15,40,18.20
2018,09,28,15,41,18.20
2018,09,28,15,42,18.20
2018,09,28,15,43,18.30
2018,09,28,15,44,18.30
2018,09,28,15,45,18.30
2018,09,28,15,46,18.30
2018,09,28,15,47,18.30
2018,09,28,15,48,18.30
2018,09,28,15,49,18.40
2018,09,28,15,50,18.40
2018,09,28,15,51,18.40
2018,09,28,15,52,18.40
2018,09,28,15,53,18.40
2018,09,28,15,54,18.40
2018,09,28,15,55,18.30
2018,09,28,15,56,18.40
2018,09,28,15,57,18.40
2018,09,28,15,58,18.40
2018,09,28,15,59,18.40
2018,09,28,16,00,18.40
2018,09,28,16,01,18.40
2018,09,28,16,02,18.40
2018,09,28,16,04,18.50
2018,09,28,16,29,18.50
2018,09,28,16,30,18.50
2018,09,28,16,31,18.50
2018,09,28,16,32,18.50
2018,09,28,16,33,18.50
2018,09,28,16,34,18.50
2018,09,28,16,35,18.50
2018,09,28,16,36,18.50
2018,09,28,16,37,18.50
2018,09,28,16,38,18.60
2018,09,28,16,39,18.60
2018,09,28,16,40,18.60
2018,09,28,16,41,18.60
2018,09,28,16,42,18.70
2018,09,28,16,43,18.70
2018,09,28,16,44,18.70
2018,09,28,16,45,18.70
2018,09,28,16,46,18.70
2018,09,28,16,47,18.70
2018,09,28,16,48,18.70
2018,09,28,16,49,18.70
2018,09,28,16,50,18.70
2018,09,28,16,51,18.70
2018,09,28,16,52,18.70
2018,09,28,16,53,18.70
2018,09,28,16,54,18.70
2018,09,28,16,55,18.70
2018,09,28,16,57,18.60
2018,09,28,16,58,18.60
2018,09,28,16,59,18.60
2018,09,28,17,29,18.20
2018,09,28,17,30,18.20
2018,09,28,17,31,18.20
2018,09,28,17,32,18.20
2018,09,28,17,33,18.20
2018,09,28,17,34,18.20
2018,09,28,17,35,18.20
2018,09,28,17,36,18.20
2018,09,28,17,37,18.20
2018,09,28,17,38,18.20
2018,09,28,17,39,18.20
2018,09,28,17,40,18.20
2018,09,28,17,41,18.20
2018,09,28,17,42,18.20
2018,09,28,17,43,18.20
2018,09,28,17,44,18.20
2018,09,28,17,45,18.20
2018,09,28,17,46,18.20
2018,09,28,17,47,18.20
2018,09,28,17,48,18.10
2018,09,28,17,49,18.10
2018,09,28,17,50,18.10
2018,09,28,17,51,18.10
2018,09,28,17,52,18.10
2018,09,28,17,53,17.90
2018,09,28,17,54,17.90
2018,09,28,17,55,17.90
2018,09,28,17,56,17.90
2018,09,28,17,57,17.90
2018,09,28,17,58,17.90
2018,09,28,17,59,17.90
2018,09,28,18,00,17.90
2018,09,28,18,02,17.90
2018,09,28,18,03,17.90
2018,09,28,18,04,17.80
2018,09,28,18,29,16.90
2018,09,28,18,30,16.90
2018,09,28,19,29,15.30
2018,09,28,19,30,15.30
2018,09,28,19,31,15.30
2018,09,28,19,32,15.20
2018,09,28,19,33,15.20
2018,09,28,19,34,15.20
2018,09,28,19,35,15.20
2018,09,28,19,36,15.20
2018,09,28,19,37,15.10
2018,09,28,19,38,15.10
2018,09,28,19,39,15.10
2018,09,28,19,40,15.10
2018,09,28,19,41,15.10
2018,09,28,19,42,15.10
2018,09,28,19,43,15.10
2018,09,28,19,44,15.10
2018,09,28,19,45,15.10
2018,09,28,19,46,15.10
2018,09,28,19,47,15.10
2018,09,28,19,48,15.10
2018,09,28,19,49,15.10
2018,09,28,19,50,15.10
2018,09,28,19,51,15.10
2018,09,28,19,52,15.10
2018,09,28,19,53,15.00
2018,09,28,19,54,15.00
2018,09,28,19,55,15.00
2018,09,28,19,56,15.00
2018,09,28,19,57,15.00
2018,09,28,19,58,15.00
2018,09,28,19,59,15.00
2018,09,28,20,00,15.00
2018,09,28,20,01,15.00
2018,09,28,20,02,15.00
2018,09,28,20,03,15.00
2018,09,28,20,04,15.00
2018,09,28,20,05,15.00
2018,09,28,20,07,15.10
2018,09,28,20,08,15.10
2018,09,28,20,09,15.10
2018,09,28,20,29,15.30
2018,09,28,20,30,15.20
2018,09,28,20,31,15.20
2018,09,28,20,32,15.20
2018,09,28,20,33,15.20
2018,09,28,20,34,15.20
2018,09,28,20,35,15.20
2018,09,28,20,36,15.20
2018,09,28,20,37,15.10
2018,09,28,20,38,15.10
2018,09,28,20,39,15.10
2018,09,28,20,40,15.10
2018,09,28,20,41,15.10
2018,09,28,20,42,15.10
2018,09,28,20,43,15.10
2018,09,28,20,44,15.10
2018,09,28,20,45,15.00
2018,09,28,20,46,15.00
2018,09,28,20,47,15.00
2018,09,28,20,48,15.00
2018,09,28,20,49,15.00
2018,09,28,20,50,15.00
2018,09,28,20,51,15.00
2018,09,28,20,52,15.00
2018,09,28,20,53,15.00
2018,09,28,20,54,15.00
2018,09,28,20,55,15.10
2018,09,28,20,56,15.10
2018,09,28,20,57,15.10
2018,09,28,20,58,15.10
2018,09,28,20,59,15.10
2018,09,28,21,00,15.10
2018,09,28,21,01,15.10
2018,09,28,21,02,15.10
2018,09,28,21,04,15.20
2018,09,28,21,29,15.40
2018,09,28,21,30,15.40
2018,09,28,21,31,15.40
2018,09,28,21,32,15.40
2018,09,28,21,33,15.40
2018,09,28,21,34,15.40
2018,09,28,21,35,15.40
2018,09,28,21,36,15.30
2018,09,28,21,37,15.30
2018,09,28,21,38,15.30
2018,09,28,21,39,15.30
2018,09,28,21,40,15.30
2018,09,28,21,41,15.30
2018,09,28,21,42,15.30
2018,09,28,21,43,15.30
2018,09,28,21,44,15.30
2018,09,28,21,45,15.30
2018,09,28,21,46,15.30
2018,09,28,21,47,15.30
2018,09,28,21,48,15.20
2018,09,28,21,49,15.20
2018,09,28,21,50,15.20
2018,09,28,21,51,15.20
2018,09,28,21,52,15.20
2018,09,28,21,53,15.10
2018,09,28,21,54,15.10
2018,09,28,21,55,15.10
2018,09,28,21,56,15.00
2018,09,28,21,57,15.00
2018,09,28,21,58,15.00
2018,09,28,21,59,14.90
2018,09,28,22,00,14.90
2018,09,28,22,01,14.90
2018,09,28,22,02,14.90
2018,09,28,22,03,14.90
2018,09,28,22,04,14.80
2018,09,28,22,05,14.80
2018,09,28,22,07,14.80
2018,09,28,22,29,14.70
2018,09,28,22,30,14.70
2018,09,28,22,31,14.70
2018,09,28,22,32,14.70
2018,09,28,22,33,14.70
2018,09,28,22,34,14.60
2018,09,28,22,35,14.60
2018,09,28,22,36,14.60
2018,09,28,22,37,14.60
2018,09,28,22,38,14.50
2018,09,28,22,39,14.50
2018,09,28,22,40,14.50
2018,09,28,22,41,14.50
2018,09,28,22,42,14.40
2018,09,28,22,43,14.40
2018,09,28,22,44,14.40
2018,09,28,22,45,14.40
2018,09,28,22,46,14.40
2018,09,28,22,47,14.30
2018,09,28,22,48,14.30
2018,09,28,22,49,14.30
2018,09,28,22,50,14.30
2018,09,28,22,51,14.20
2018,09,28,22,52,14.20
2018,09,28,22,53,14.20
2018,09,28,22,54,14.20
2018,09,28,22,55,14.20
2018,09,28,22,56,14.20
2018,09,28,22,58,14.20
2018,09,28,23,29,14.00
2018,09,28,23,30,14.00
2018,09,28,23,31,14.00
2018,09,28,23,32,14.00
2018,09,28,23,33,14.00
2018,09,28,23,34,14.00
2018,09,28,23,35,14.00
2018,09,28,23,36,14.00
2018,09,28,23,37,14.00
2018,09,28,23,38,13.90
2018,09,28,23,39,13.90
2018,09,28,23,40,13.90
2018,09,28,23,41,13.90
2018,09,28,23,42,13.90
2018,09,28,23,43,13.90
2018,09,28,23,44,13.90
2018,09,28,23,45,13.90
2018,09,28,23,46,13.90
2018,09,28,23,47,13.90
2018,09,28,23,48,13.80
2018,09,28,23,49,13.80
2018,09,28,23,50,13.80
2018,09,28,23,51,13.80
2018,09,28,23,52,13.80
2018,09,28,23,53,13.80
2018,09,28,23,54,13.80
2018,09,28,23,55,13.80
2018,09,28,23,56,13.70
2018,09,28,23,57,13.70
2018,09,28,23,58,13.70
2018,09,28,23,59,13.70
